Russell, KS

7:34 AM CDT on August 25, 2016 (GMT -0500)
Russell Municipal

Weather History for KRSL - November, 2013

Change the Weather History Date:

Friday, November 8, 2013

  Actual Average Record
Temperature  
Mean Temperature 56 °F -  
Max Temperature 71 °F 57 °F 88 °F (2006)
Min Temperature 41 °F 34 °F 15 °F (1955)
Degree Days  
Heating Degree Days 9    
Growing Degree Days 6 (Base 50)    
Moisture  
Dew Point 33 °F    
Average Humidity 51    
Maximum Humidity 76    
Minimum Humidity 23    
Precipitation  
Precipitation 0.00 in - - ()
Sea Level Pressure  
Sea Level Pressure 29.92 in    
Wind  
Wind Speed 18 mph (SSW)    
Max Wind Speed 30 mph    
Max Gust Speed 46 mph    
Visibility 10 miles    
Events      
Averages and records for this station are not official NWS values.
T = Trace of Precipitation, MM = Missing Value Source: NWS Daily Summary

Daily Weather History Graph

Daily Weather History Graph

Search for Another Location

Airport or City:

Trip Planner

Search our weather history database for the weather conditions in past years. The results will help you decide how hot, cold, wet, or windy it might be!

Date:

Astronomy

Nov. 08, 2013 Rise Set
Actual Time 7:10 AM CST 5:27 PM CST
Civil Twilight 6:42 AM CST 5:55 PM CST
Nautical Twilight 6:10 AM CST 6:27 PM CST
Astronomical Twilight 5:39 AM CST 6:58 PM CST
Moon 12:07 PM CST (11/8) 10:49 PM CST (11/8)
Length of Visible Light 11h 12m
Length of Day
10h 16m
Waxing Crescent, 33% of the Moon is Illuminated
Nov 8
Waxing Crescent
Nov 9
First Quarter
Nov 17
Full
Nov 25
Last Quarter
Dec 2
New

Hourly Weather History & Observations

Time (CST) Temp. Windchill Dew Point Humidity Pressure Visibility Wind Dir Wind Speed Gust Speed Precip Events Conditions
12:53 AM 41.0 °F 33.1 °F 34.0 °F 76% 30.19 in 10.0 mi SSE 15.0 mph - N/A   Clear
1:53 AM 42.1 °F 33.9 °F 34.0 °F 73% 30.14 in 10.0 mi SSE 17.3 mph - N/A   Clear
2:53 AM 43.0 °F 35.4 °F 34.0 °F 71% 30.09 in 10.0 mi South 16.1 mph - N/A   Clear
3:53 AM 42.1 °F 34.2 °F 33.1 °F 70% 30.06 in 10.0 mi South 16.1 mph - N/A   Clear
4:53 AM 42.1 °F 33.1 °F 32.0 °F 67% 30.02 in 10.0 mi South 20.7 mph - N/A   Clear
5:53 AM 44.1 °F 35.2 °F 30.9 °F 60% 29.98 in 10.0 mi South 23.0 mph - N/A   Clear
6:53 AM 44.1 °F 35.4 °F 30.0 °F 58% 29.96 in 10.0 mi South 21.9 mph 27.6 mph N/A   Clear
7:53 AM 45.0 °F 36.6 °F 30.0 °F 56% 29.95 in 10.0 mi South 21.9 mph 27.6 mph N/A   Clear
8:53 AM 50.0 °F - 30.0 °F 46% 29.91 in 10.0 mi South 25.3 mph 33.4 mph N/A   Clear
9:53 AM 51.1 °F - 28.9 °F 43% 29.90 in 10.0 mi SSW 24.2 mph 34.5 mph N/A   Clear
10:53 AM 55.9 °F - 30.0 °F 37% 29.89 in 10.0 mi SSW 28.8 mph 38.0 mph N/A   Clear
11:53 AM 60.1 °F - 32.0 °F 35% 29.84 in 10.0 mi SSW 27.6 mph 38.0 mph N/A   Clear
12:53 PM 64.9 °F - 33.1 °F 31% 29.78 in 10.0 mi SSW 28.8 mph 46.0 mph N/A   Clear
1:53 PM 68.0 °F - 32.0 °F 26% 29.78 in 10.0 mi SSW 29.9 mph 41.4 mph N/A   Clear
2:53 PM 70.0 °F - 30.0 °F 23% 29.75 in 10.0 mi SW 26.5 mph 41.4 mph N/A   Clear
3:53 PM 71.1 °F - 32.0 °F 24% 29.78 in 10.0 mi SW 20.7 mph 26.5 mph N/A   Clear
4:53 PM 66.0 °F - 35.1 °F 32% 29.80 in 10.0 mi SW 9.2 mph - N/A   Clear
5:53 PM 57.0 °F - 36.0 °F 45% 29.82 in 10.0 mi SW 9.2 mph - N/A   Clear
6:53 PM 57.0 °F - 35.1 °F 44% 29.84 in 10.0 mi SW 5.8 mph - N/A   Clear
7:53 PM 51.1 °F - 36.0 °F 56% 29.88 in 10.0 mi South 10.4 mph - N/A   Clear
8:53 PM 50.0 °F - 35.1 °F 57% 29.89 in 10.0 mi South 12.7 mph - N/A   Clear
9:53 PM 50.0 °F - 34.0 °F 54% 29.91 in 10.0 mi South 11.5 mph - N/A   Clear
10:53 PM 45.0 °F 40.1 °F 34.0 °F 65% 29.92 in 10.0 mi SSW 9.2 mph - N/A   Clear
11:53 PM 45.0 °F 39.7 °F 34.0 °F 65% 29.93 in 10.0 mi South 10.4 mph - N/A   Clear